Find Starlink 4386

NORAD ID: 53649 Int'l Des: 2022-105 Owner: SPXS Country: US Constellation: starlink operational
LEOCIRCULARRETROGRADESSO

現在のビュー

3D地球を読み込み中...

About Starlink 4386

Starlink 4386 (NORAD 53649) is a starlink constellation satellite (v1.5) launched Aug 31, 2022 by SPXS of US. It operates in LEO, CIRCULAR, RETROGRADE, SSO orbit with a mass of 300.00 kg.

Starlink 4386について

説明を読み込み中...

次回通過

Passes for default location (London). Set your location on the main map for personalized predictions.

高度履歴

Loading altitude history...

軌道要素

1 53649U 22105B 26171.41668980 .00186343 00000-0 35248-2 0 9995
2 53649 97.6025 55.3819 0001831 81.9226 272.3031 15.47699239 5794
Epoch: Jun 20, 2026 • Age: 9 hours

現在のステータス

高度 428.6 km
速度 7.65 km/s
衛星直下点 -12.08°S, 140.85°W
打ち上げ日 Aug 31, 2022
運用期間 3.8 years
タイプ internet

技術仕様

分類 Payload
質量 300.00 kg
乾燥質量 290.00 kg
総質量 300.00 kg
長さ 0.20 m
直径 2.80 m
スパン 9.00 m
形状 Box + pan
製造者 SPXS
バスタイプ Starlink
フェーズステータス In Orbit
所有者/国 SPXS/US

Most Searched